K8RRT Weather Reports


time (UTC)temp
C
wind
direction
speed
KPH
gust
KPH
rain 1hr
cm
rain 24hr
cm
rain mn
cm
humidity
%
barometer
mb
20260503021916 7 335 0.0 0.0 0.00 0.00 0.00 59 1013.4
20260503021412 7 357 0.0 1.6 0.00 0.00 0.00 59 1013.4
20260503020910 7 13 4.8 4.8 0.00 0.00 0.00 59 1013.6
20260503020408 7 331 3.2 3.2 0.00 0.00 0.00 58 1013.2
20260503015904 7 349 3.2 3.2 0.00 0.00 0.00 59 1013.1
20260503015401 7 331 1.6 3.2 0.00 0.00 0.00 58 1013.4
20260503014856 7 347 1.6 1.6 0.00 0.00 0.00 59 1013.3
20260503014354 7 339 1.6 3.2 0.00 0.00 0.00 58 1013.0
20260503013852 8 359 3.2 3.2 0.00 0.00 0.00 58 1013.0
20260503013348 8 333 0.0 1.6 0.00 0.00 0.00 57 1012.7
20260503012846 8 320 0.0 1.6 0.00 0.00 0.00 56 1012.9
20260503012343 8 348 4.8 4.8 0.00 0.00 0.00 55 1013.0
20260503011840 8 333 4.8 4.8 0.00 0.00 0.00 54 1012.8
20260503011337 8 342 3.2 3.2 0.00 0.00 0.00 55 1012.9
20260503010833 8 12 1.6 3.2 0.00 0.00 0.00 54 1012.6
20260503010331 8 298 4.8 4.8 0.00 0.00 0.00 54 1012.6
20260503005827 9 0 3.2 4.8 0.00 0.00 0.00 53 1012.8
20260503005325 9 346 4.8 4.8 0.00 0.00 0.00 54 1012.3
20260503004821 9 0 4.8 4.8 0.00 0.00 0.00 54 1012.5
20260503004319 8 320 3.2 3.2 0.00 0.00 0.00 55 1012.3
20260503003816 9 356 0.0 1.6 0.00 0.00 0.00 57 1012.3
20260503003313 9 332 0.0 1.6 0.00 0.00 0.00 56 1012.2
20260503002810 9 330 0.0 0.0 0.00 0.00 0.00 56 1012.2
20260503002307 10 330 0.0 1.6 0.00 0.00 0.00 54 1012.1
20260503001803 10 335 3.2 3.2 0.00 0.00 0.00 52 1012.1
20260503001259 10 287 4.8 8.0 0.00 0.00 0.00 54 1012.0
20260503000757 10 324 1.6 3.2 0.00 0.00 0.00 52 1011.9
20260503000254 10 306 1.6 3.2 0.00 0.00 0.00 51 1011.9
20260502235751 10 322 6.4 8.0 0.00 0.00 0.00 51 1011.8
20260502235249 10 344 6.4 8.0 0.00 0.00 0.00 53 1011.7
20260502234745 11 357 3.2 3.2 0.00 0.00 0.00 51 1011.8
20260502234242 11 335 3.2 4.8 0.00 0.00 0.00 51 1011.7
20260502233738 11 313 4.8 4.8 0.00 0.00 0.00 50 1011.7
20260502233235 11 320 4.8 4.8 0.00 0.00 0.00 50 1011.7
20260502232731 11 298 4.8 8.0 0.00 0.00 0.00 50 1011.6
20260502232228 11 351 3.2 3.2 0.00 0.00 0.00 48 1011.5
20260502231725 11 338 4.8 4.8 0.00 0.00 0.00 49 1011.6
20260502231223 11 304 6.4 9.7 0.00 0.00 0.00 49 1011.5
20260502230721 11 332 11.3 14.5 0.00 0.00 0.00 48 1011.2
20260502230219 11 300 9.7 11.3 0.00 0.00 0.00 47 1011.5
20260502225715 11 322 4.8 4.8 0.00 0.00 0.00 47 1011.2
20260502225212 12 269 4.8 4.8 0.00 0.00 0.00 49 1011.5
20260502224708 12 325 4.8 4.8 0.00 0.00 0.00 48 1011.2
20260502224205 12 309 6.4 8.0 0.00 0.00 0.00 50 1011.4
20260502223702 12 267 8.0 11.3 0.00 0.00 0.00 47 1011.2
20260502223201 12 332 8.0 9.7 0.00 0.00 0.00 46 1011.3
20260502222658 12 279 6.4 8.0 0.00 0.00 0.00 47 1011.3
20260502222155 12 312 14.5 16.1 0.00 0.00 0.00 46 1011.2
20260502221650 12 329 9.7 11.3 0.00 0.00 0.00 47 1011.2
20260502221147 12 313 6.4 8.0 0.00 0.00 0.00 47 1011.2
20260502220643 12 342 11.3 12.9 0.00 0.00 0.00 45 1011.2
20260502220140 12 328 8.0 9.7 0.00 0.00 0.00 46 1011.1
20260502215637 13 355 8.0 9.7 0.00 0.00 0.00 45 1011.0
20260502215134 13 288 9.7 11.3 0.00 0.00 0.00 44 1011.1
20260502214631 12 290 11.3 12.9 0.00 0.00 0.00 45 1011.0
20260502214128 12 272 8.0 11.3 0.00 0.00 0.00 48 1010.9
20260502213625 13 311 4.8 4.8 0.00 0.00 0.00 47 1011.1
20260502213122 13 323 11.3 16.1 0.00 0.00 0.00 45 1011.1
20260502212621 13 314 8.0 9.7 0.00 0.00 0.00 47 1010.9
20260502212120 12 277 4.8 4.8 0.00 0.00 0.00 47 1011.1
20260502211614 12 306 8.0 9.7 0.00 0.00 0.00 50 1010.9
20260502211112 11 304 8.0 9.7 0.00 0.00 0.00 47 1010.9
20260502210609 11 309 8.0 9.7 0.00 0.00 0.00 49 1011.1
20260502210106 12 299 9.7 11.3 0.00 0.00 0.00 47 1011.0
20260502205603 12 282 8.0 9.7 0.00 0.00 0.00 47 1010.9
20260502205100 12 276 9.7 14.5 0.00 0.00 0.00 45 1010.8
20260502204556 13 246 8.0 11.3 0.00 0.00 0.00 47 1010.9
20260502204054 13 256 3.2 3.2 0.00 0.00 0.00 47 1011.1
20260502203551 12 301 4.8 8.0 0.00 0.00 0.00 47 1011.3
20260502203048 12 329 6.4 8.0 0.00 0.00 0.00 47 1011.2
20260502202544 12 261 4.8 8.0 0.00 0.00 0.00 49 1011.0
20260502202043 12 281 3.2 3.2 0.00 0.00 0.00 47 1011.3
20260502201538 12 293 6.4 11.3 0.00 0.00 0.00 51 1011.3
20260502201035 11 335 11.3 12.9 0.00 0.00 0.00 48 1011.2
20260502200530 11 340 12.9 14.5 0.00 0.00 0.00 48 1011.2
20260502200029 12 286 12.9 16.1 0.00 0.00 0.00 47 1011.2
20260502195526 12 314 8.0 9.7 0.00 0.00 0.00 48 1011.4
20260502195021 12 346 6.4 8.0 0.00 0.00 0.00 51 1011.4
20260502194519 11 290 11.3 14.5 0.00 0.00 0.00 48 1011.6
20260502194015 11 264 6.4 8.0 0.00 0.00 0.00 49 1011.4
20260502193512 11 266 11.3 12.9 0.00 0.00 0.00 47 1011.5
20260502193009 12 287 14.5 17.7 0.00 0.00 0.00 46 1011.5
20260502192505 12 262 6.4 11.3 0.00 0.00 0.00 49 1011.6
20260502192003 12 320 11.3 14.5 0.00 0.00 0.00 46 1011.6
20260502191500 12 293 9.7 12.9 0.00 0.00 0.00 48 1011.6
20260502190957 12 300 4.8 4.8 0.00 0.00 0.00 48 1011.6
20260502190454 12 323 6.4 9.7 0.00 0.00 0.00 51 1011.7
20260502185950 12 313 8.0 11.3 0.00 0.00 0.00 48 1011.8
20260502185446 11 335 4.8 4.8 0.00 0.00 0.00 52 1011.9
20260502184943 11 326 12.9 14.5 0.00 0.00 0.00 49 1012.0
20260502184438 12 326 6.4 8.0 0.00 0.00 0.00 47 1011.9
20260502183935 12 336 4.8 4.8 0.00 0.00 0.00 51 1011.8
20260502183431 13 342 4.8 4.8 0.00 0.00 0.00 52 1011.9
20260502182926 12 286 3.2 4.8 0.00 0.00 0.00 47 1012.1
20260502182422 12 295 8.0 8.0 0.00 0.00 0.00 50 1012.0
20260502181918 12 286 9.7 11.3 0.00 0.00 0.00 50 1012.1
20260502181417 12 314 8.0 11.3 0.00 0.00 0.00 50 1012.1
20260502180915 11 324 6.4 9.7 0.00 0.00 0.00 50 1012.2
20260502180412 11 299 11.3 14.5 0.00 0.00 0.00 48 1012.3
20260502170331 12 349 4.8 4.8 0.00 0.00 0.00 50 1012.3
20260502164318 11 86 1.6 1.6 0.00 0.00 0.00 46 1012.4
20260502163814 12 314 12.9 14.5 0.00 0.00 0.00 50 1012.6
20260502163310 11 298 9.7 12.9 0.00 0.00 0.00 52 1012.8
20260502162808 11 296 4.8 4.8 0.00 0.00 0.00 55 1012.4
20260502162305 11 302 9.7 11.3 0.00 0.00 0.00 51 1012.8
20260502161801 11 317 9.7 11.3 0.00 0.00 0.00 50 1012.6
20260502161257 13 318 3.2 3.2 0.00 0.00 0.00 51 1012.7
20260502160756 11 354 3.2 4.8 0.00 0.00 0.00 51 1012.7
20260502160255 12 335 1.6 1.6 0.00 0.00 0.00 52 1012.7
20260502152224 11 329 4.8 4.8 0.00 0.00 0.00 50 1013.2
20260502151721 11 336 6.4 8.0 0.00 0.00 0.00 51 1013.1
20260502151218 11 236 6.4 9.7 0.00 0.00 0.00 52 1013.0
20260502150715 11 276 1.6 3.2 0.00 0.00 0.00 50 1012.8
20260502150212 11 357 4.8 4.8 0.00 0.00 0.00 52 1013.1
20260502130601 6 274 3.2 3.2 0.00 0.00 0.00 99 1013.2
20260502123544 4 277 4.8 4.8 0.00 0.00 0.00 99 1013.3
20260502123040 4 257 1.6 1.6 0.00 0.00 0.00 99 1013.1
20260502122537 3 281 1.6 1.6 0.00 0.00 0.00 99 1013.1
20260502122034 3 243 1.6 1.6 0.00 0.00 0.00 99 1013.1
20260502121532 3 334 0.0 1.6 0.00 0.00 0.00 99 1013.1
20260502121029 3 342 0.0 0.0 0.00 0.00 0.00 99 1013.1
20260502120525 2 336 0.0 0.0 0.00 0.00 0.00 99 1013.3
20260502115520 2 334 0.0 1.6 0.00 0.00 0.00 99 1012.8
20260502115015 2 339 1.6 1.6 0.00 0.00 0.00 99 1012.7
20260502114513 2 335 0.0 0.0 0.00 0.00 0.00 99 1012.9
20260502114009 2 299 0.0 0.0 0.00 0.00 0.00 99 1012.9
20260502113507 1 262 0.0 0.0 0.00 0.00 0.00 99 1013.0
20260502113006 1 252 0.0 0.0 0.00 0.00 0.00 99 1013.0
20260502112503 1 284 0.0 1.6 0.00 0.00 0.00 99 1013.1
20260502112000 1 286 1.6 1.6 0.00 0.00 0.00 99 1013.0
20260502111457 1 286 1.6 1.6 0.00 0.00 0.00 99 1012.8
20260502110955 1 272 0.0 0.0 0.00 0.00 0.00 99 1012.8
20260502110452 1 269 0.0 0.0 0.00 0.00 0.00 99 1012.9
20260502105949 1 255 0.0 1.6 0.00 0.00 0.00 99 1012.8
20260502105447 1 274 0.0 0.0 0.00 0.00 0.00 99 1012.7
20260502104944 1 274 0.0 0.0 0.00 0.00 0.00 99 1012.6
20260502104441 0 274 0.0 0.0 0.00 0.00 0.00 99 1012.6
20260502103938 0 274 0.0 0.0 0.00 0.00 0.00 99 1012.6
20260502103436 0 274 0.0 0.0 0.00 0.00 0.00 99 1012.5
20260502102933 1 274 0.0 0.0 0.00 0.00 0.00 99 1012.4
20260502102430 1 274 0.0 0.0 0.00 0.00 0.00 99 1012.5
20260502101927 0 274 0.0 0.0 0.00 0.00 0.00 99 1012.7
20260502101425 1 274 0.0 0.0 0.00 0.00 0.00 99 1012.8
20260502100923 1 274 0.0 0.0 0.00 0.00 0.00 99 1013.0
20260502100422 1 274 0.0 0.0 0.00 0.00 0.00 99 1012.9
20260502091356 1 274 0.0 0.0 0.00 0.00 0.00 99 1012.9
20260502090854 1 274 0.0 0.0 0.00 0.00 0.00 99 1013.0
20260502090350 1 274 0.0 0.0 0.00 0.00 0.00 99 1013.1
20260502071245 2 271 0.0 0.0 0.00 0.00 0.00 99 1012.9
20260502070743 1 271 0.0 0.0 0.00 0.00 0.00 99 1012.4
20260502070240 1 271 0.0 0.0 0.00 0.00 0.00 99 1012.5
20260502065739 1 272 0.0 0.0 0.00 0.00 0.00 99 1012.8
20260502065237 2 271 0.0 0.0 0.00 0.00 0.00 99 1012.7
20260502064735 2 256 0.0 0.0 0.00 0.00 0.00 99 1012.7
20260502064232 2 254 0.0 0.0 0.00 0.00 0.00 99 1013.0
20260502063729 2 255 0.0 0.0 0.00 0.00 0.00 99 1012.9
20260502063227 2 300 0.0 0.0 0.00 0.00 0.00 99 1012.6
20260502062724 2 300 0.0 0.0 0.00 0.00 0.00 99 1012.8
20260502062222 2 301 0.0 0.0 0.00 0.00 0.00 99 1012.9
20260502061720 2 301 0.0 0.0 0.00 0.00 0.00 99 1012.9
20260502061217 2 149 0.0 0.0 0.00 0.00 0.00 99 1013.1
20260502060712 2 147 0.0 0.0 0.00 0.00 0.00 99 1013.3
20260502060209 2 147 0.0 0.0 0.00 0.00 0.00 99 1013.0
20260502055707 3 147 0.0 0.0 0.00 0.00 0.00 99 1013.2
20260502055204 3 147 1.6 1.6 0.00 0.00 0.00 99 1012.9
20260502054704 3 147 1.6 1.6 0.00 0.00 0.00 99 1012.9
20260502054200 3 146 0.0 0.0 0.00 0.00 0.00 99 1013.1
20260502053658 2 146 0.0 0.0 0.00 0.00 0.00 99 1013.2
20260502053154 2 146 0.0 0.0 0.00 0.00 0.00 98 1013.1
20260502052653 3 146 0.0 0.0 0.00 0.00 0.00 98 1013.2
20260502052151 2 146 0.0 0.0 0.00 0.00 0.00 98 1013.3
20260502051648 3 145 0.0 0.0 0.00 0.00 0.00 97 1013.2
20260502051147 3 147 0.0 0.0 0.00 0.00 0.00 98 1013.2
20260502050642 2 143 0.0 0.0 0.00 0.00 0.00 97 1013.4
20260502050139 3 142 0.0 0.0 0.00 0.00 0.00 97 1013.3
20260502045636 3 142 0.0 0.0 0.00 0.00 0.00 96 1013.3
20260502045133 3 142 0.0 0.0 0.00 0.00 0.00 96 1013.3
20260502044629 3 196 1.6 1.6 0.00 0.00 0.00 96 1013.4
20260502044126 3 235 0.0 1.6 0.00 0.00 0.00 96 1013.2
20260502043625 3 8 0.0 0.0 0.00 0.00 0.00 95 1013.4
20260502043121 4 298 0.0 0.0 0.00 0.00 0.00 95 1013.5
20260502042621 4 206 0.0 0.0 0.00 0.00 0.00 95 1013.5
20260502042118 4 209 0.0 0.0 0.00 0.00 0.00 94 1013.5
20260502041616 4 204 0.0 0.0 0.00 0.00 0.00 94 1013.4
20260502041113 4 204 0.0 0.0 0.00 0.00 0.00 93 1013.2
20260502040609 5 204 0.0 0.0 0.00 0.00 0.00 92 1013.5
20260502040107 5 204 0.0 0.0 0.00 0.00 0.00 92 1013.3
20260502035603 5 183 0.0 0.0 0.00 0.00 0.00 91 1013.3
20260502035100 5 182 0.0 0.0 0.00 0.00 0.00 91 1013.4
20260502034558 5 181 0.0 1.6 0.00 0.00 0.00 91 1013.4
20260502034056 5 181 0.0 0.0 0.00 0.00 0.00 90 1013.1
20260502033554 5 181 0.0 1.6 0.00 0.00 0.00 90 1013.2
20260502033051 5 181 0.0 0.0 0.00 0.00 0.00 88 1013.1
20260502032547 6 181 0.0 0.0 0.00 0.00 0.00 88 1013.1
20260502032043 6 180 1.6 1.6 0.00 0.00 0.00 87 1013.1
20260502031541 6 220 0.0 0.0 0.00 0.00 0.00 86 1013.1
20260502031039 6 220 0.0 0.0 0.00 0.00 0.00 85 1013.1
20260502030538 6 220 0.0 0.0 0.00 0.00 0.00 85 1013.2
20260502030035 7 220 1.6 1.6 0.00 0.00 0.00 85 1013.1
20260502025532 7 228 1.6 3.2 0.00 0.00 0.00 84 1013.2
20260502025031 7 260 0.0 0.0 0.00 0.00 0.00 83 1013.3
20260502024527 7 292 0.0 0.0 0.00 0.00 0.00 82 1013.2
20260502024026 7 292 0.0 0.0 0.00 0.00 0.00 81 1013.2
20260502023523 7 245 0.0 0.0 0.00 0.00 0.00 80 1013.5
20260502023020 7 244 0.0 0.0 0.00 0.00 0.00 79 1013.4
20260502022517 8 231 1.6 1.6 0.00 0.00 0.00 78 1013.3